[[{"header":{"parameterUnit":"m.s-1","parameterCategory":1,"la1":30.2991,"la2":30.254,"lo1":-89.0895,"lo2":-89.0444,"dy":0.0017,"dx":0.0017,"nx":28,"ny":28,"refTime":"2024-04-08T21:00:00:Z","depth":0,"parameterNumber":2,"parameterNumberName":"U-component_of_WINDS"},"data":[0,0,0,0,0,0,0,0,0,0,0,0,0,0,0,0,0,0,0,0,0,0,0,0,0,0,0,0,0,0,0,0,0,0,0,0,0,0,0,0,0,0,0,0,0,0,0,0,0,0,0,0,0,0,0,0,0,0,-5.8995,-5.8996,0,-5.9093,-5.9094,-5.9095,-5.905,-5.9047,-5.9045,-5.9043,-5.9142,-5.9147,-5.9152,0,0,0,0,0,0,0,0,0,0,0,0,0,-5.8769,-5.8774,-5.8995,-5.8996,-5.8998,-5.9093,-5.9094,-5.9096,-5.905,-5.9047,-5.9044,-5.9041,-5.9141,-5.9147,-5.9153,0,0,0,0,0,0,0,0,0,0,0,0,0,-5.8867,-5.8775,-5.8995,-5.8986,-5.8987,-5.9093,-5.9094,-5.9096,-5.9051,-5.9047,-5.9044,-5.904,-5.9139,-5.9146,-5.9153,-5.9273,0,0,-5.9176,-5.9179,0,0,0,0,0,0,0,0,-5.8862,-5.8876,-5.8986,-5.8987,-5.8988,-5.9055,-5.9051,-5.9155,-5.9052,-5.9027,-5.9043,-5.9038,-5.9116,-5.9125,-5.9152,-5.9278,-5.9282,-5.9177,-5.9181,-5.9184,-5.9187,0,0,0,0,0,0,0,-5.8855,-5.8871,-5.9034,-5.8988,-5.8989,-5.8978,-5.8988,-5.9071,-5.9091,-5.9028,-5.9025,-5.9038,-5.9116,-5.9145,-5.9154,-5.9283,-5.9177,-5.9183,-5.9188,-5.9191,-5.9512,-5.9516,0,0,0,0,0,0,-5.8849,-5.8866,-5.9031,-5.9037,-5.8914,-5.8985,-5.8996,-5.9037,-5.909,-5.9094,-5.9041,-5.9035,-5.9134,-5.9145,-5.9157,-5.9299,-5.9184,-5.9191,-5.9196,-5.9508,-5.9513,-5.9518,0,0,0,0,0,0,-5.8844,-5.8864,-5.9027,-5.8951,-5.897,-5.8993,-5.904,-5.9041,-5.907,-5.9099,-5.9103,-5.9066,-5.9132,-5.9147,-5.9245,-5.9302,-5.9195,-5.9201,-5.9503,-5.951,-5.9515,-5.9585,0,0,0,0,0,0,-5.8838,-5.8862,-5.8908,-5.8952,-5.8975,-5.9112,-5.9043,-5.9046,-5.9083,-5.9077,-5.9124,-5.9128,-5.913,-5.9234,-5.9252,-5.931,-5.9207,-5.9498,-5.9506,-5.9514,-5.9578,-5.9593,-5.9606,0,0,0,0,0,-5.883,-5.8923,-5.891,-5.893,-5.9032,-5.9116,-5.9128,-5.9128,-5.9088,-5.9133,-5.9153,-5.9127,-5.9294,-5.9244,-5.9264,-5.9326,-5.9495,-5.9504,-5.9513,-5.9571,-5.959,-5.9606,0,0,0,0,0,0,-5.8884,-5.8929,-5.8915,-5.9025,-5.9067,-5.9108,-5.9165,-5.9148,-5.9202,-5.9194,-5.9191,-5.9203,-5.9303,-5.9325,-5.9269,-5.9445,-5.9388,-5.9402,-5.9426,-5.9444,-5.9457,-5.9448,-5.9213,0,0,0,0,0,-5.8909,-5.8974,-5.9009,-5.9104,-5.9126,-5.9142,-5.9179,-5.9175,-5.9218,-5.9235,-5.9261,-5.9304,-5.9366,-5.9407,-5.9466,-5.9583,-5.9591,-5.9635,-5.9649,-5.9661,-5.9671,-5.9734,-5.9753,-5.9548,-5.9548,-5.9548,0,0,-5.8961,-5.8994,-5.9034,-5.9116,-5.9147,-5.9213,-5.9157,-5.923,-5.9278,-5.9246,-5.9339,-5.9361,-5.9408,-5.9516,-5.9565,-5.9537,-5.9731,-5.9673,-5.9681,-5.9686,-5.9745,-5.9765,-5.9782,-5.9554,-5.9553,-5.9552,0,0,-5.9089,-5.9121,-5.9202,-5.9236,-5.9285,-5.9296,-5.9316,-5.936,-5.9373,-5.9467,-5.9444,-5.9503,-5.9611,-5.9645,-5.9677,-5.9821,-5.9799,-5.9841,-5.9912,-5.9974,-5.999,-6.0004,-6.0053,-6.0071,-5.9852,-5.9852,-5.9852,0,-5.9146,-5.9245,-5.9246,-5.932,-5.9356,-5.9332,-5.9414,-5.9447,-5.9514,-5.9539,-5.9508,-5.9642,-5.9673,-5.9788,-5.9823,-5.9851,-5.9872,-5.9833,-5.9987,-6.0002,-6.0015,-6.0062,-6.008,-5.9857,-5.9856,-5.9856,-5.9855,0,-5.9313,-5.9382,-5.9442,-5.9506,-5.955,-5.9628,-5.9641,-5.9686,-5.968,-5.9694,-5.979,-5.9827,-5.9892,-5.9921,-5.9915,-6.0035,-6.0016,-5.9987,-5.9929,-6.0039,-6.0083,-6.0101,-5.9863,-5.9862,-5.986,-5.9859,0,0,-5.9472,-5.9539,-5.956,-5.9589,-5.9644,-5.9697,-5.9776,-5.984,-5.9877,-5.9925,-5.9989,-6.0082,-6.0055,-6.0092,-6.0091,-6.0145,-6.0255,-6.0109,-6.011,-6.0132,-6.0387,-6.0405,-6.0426,-6.0243,-6.0246,-6.0249,-6.0382,0,-5.9601,-5.9736,-5.9741,-5.9864,-5.9928,-5.9908,-5.9976,-6.0016,-6.0033,-6.009,-6.0109,-6.0173,-6.0135,-6.0156,-6.0209,-6.023,-6.0305,-6.0221,-6.03,-6.0303,-6.0284,-6.0449,-6.0469,-6.0593,-6.0399,-6.0402,-6.0404,0,-5.9768,-5.9821,-5.9951,-5.9997,-6.0024,-6.0084,-6.0144,-6.0199,-6.0246,-6.0254,-6.0296,-6.0288,-6.0368,-6.0312,-6.0421,-6.0364,-6.0398,-6.0413,-6.0418,-6.0422,-6.0357,-6.0454,-6.0632,-6.0649,-6.0432,-6.0429,-6.0427,0,-5.9868,-5.9973,-6.0063,-6.009,-6.0146,-6.0189,-6.0215,-6.0258,-6.0297,-6.035,-6.0375,-6.0437,-6.047,-6.0519,-6.0528,-6.0486,-6.0637,-6.0582,-6.0645,-6.0644,-6.0673,-6.067,-6.0855,-6.0702,-6.0702,-6.0701,-6.0701,0,-6.0008,-6.0088,-6.0109,-6.0164,-6.0253,-6.0259,-6.0347,-6.0369,-6.0409,-6.0468,-6.0457,-6.0513,-6.0523,-6.0582,-6.0591,-6.0679,-6.0695,-6.0703,-6.0703,-6.0702,-6.07,-6.072,-6.071,-6.0706,-6.0705,-6.0704,-6.0704,0,-6.0132,-6.015,-6.0247,-6.0294,-6.0307,-6.0371,-6.041,-6.0464,-6.0481,-6.0556,-6.0575,-6.0601,-6.067,-6.0685,-6.0767,-6.0773,-6.0877,-6.0871,-6.086,-6.0858,-6.0919,-6.0912,-6.112,-6.1147,-6.098,-6.0981,-6.0983,0,-6.0218,-6.0279,-6.0333,-6.0372,-6.04,-6.0463,-6.0503,-6.0513,-6.0555,-6.0614,-6.066,-6.0728,-6.0782,-6.0893,-6.0919,-6.0982,-6.0975,-6.1045,-6.0984,-6.0981,-6.0973,-6.0967,-6.0972,-6.1054,-6.1056,-6.1057,-6.1059,0,-6.0369,-6.0375,-6.0433,-6.0495,-6.0543,-6.0592,-6.0638,-6.0671,-6.0688,-6.0736,-6.0806,-6.0848,-6.0933,-6.1,-6.1063,-6.109,-6.1077,-6.1078,-6.1095,-6.1092,-6.1082,-6.1085,-6.0887,-6.1072,-6.1071,-6.107,-6.1069,-6.1068,-6.0474,-6.0526,-6.0573,-6.0638,-6.0675,-6.0719,-6.0771,-6.0796,-6.0854,-6.0923,-6.0927,-6.1003,-6.105,-6.1134,-6.1165,-6.1225,-6.1203,-6.1229,-6.1235,-6.124,-6.1244,-6.1076,-6.1237,-6.1237,-6.1236,-6.1236,-6.1236,0,-6.062,-6.065,-6.071,-6.0776,-6.0828,-6.0814,-6.0865,-6.0909,-6.0976,-6.1021,-6.1075,-6.1157,-6.1222,-6.1256,-6.1321,-6.1362,-6.1358,-6.1379,-6.1373,-6.138,-6.1261,-6.1238,-6.1381,-6.1381,-6.1381,-6.1381,-6.1381,-6.1381,-6.0702,-6.079,-6.0803,-6.0909,-6.0938,-6.1013,-6.1043,-6.1085,-6.112,-6.1212,-6.1266,-6.1288,-6.1328,-6.1397,-6.1457,-6.1465,-6.1488,-6.1511,-6.1516,-6.1403,-6.1388,-6.1374,-6.1352,-6.1517,-6.1517,-6.1629,-6.163,-6.1631]},{"header":{"parameterUnit":"m.s-1","parameterCategory":1,"la1":30.2991,"la2":30.254,"lo1":-89.0895,"lo2":-89.0444,"dy":0.0017,"dx":0.0017,"nx":28,"ny":28,"refTime":"2024-04-08T21:00:00:Z","depth":0,"parameterNumber":3,"parameterNumberName":"V-component_of_WINDS"},"data":[0,0,0,0,0,0,0,0,0,0,0,0,0,0,0,0,0,0,0,0,0,0,0,0,0,0,0,0,0,0,0,0,0,0,0,0,0,0,0,0,0,0,0,0,0,0,0,0,0,0,0,0,0,0,0,0,0,0,3.1101,3.1101,0,3.111,3.111,3.111,3.1088,3.1087,3.1087,3.1086,3.1092,3.1093,3.1094,0,0,0,0,0,0,0,0,0,0,0,0,0,3.1065,3.1066,3.1101,3.1101,3.1102,3.111,3.111,3.111,3.1088,3.1087,3.1086,3.1086,3.1092,3.1093,3.1094,0,0,0,0,0,0,0,0,0,0,0,0,0,3.1078,3.1066,3.1101,3.1092,3.1091,3.111,3.111,3.111,3.1088,3.1087,3.1086,3.1085,3.1092,3.1093,3.1094,3.1122,0,0,3.1098,3.1098,0,0,0,0,0,0,0,0,3.1077,3.1079,3.1093,3.1092,3.1091,3.1097,3.11,3.1114,3.1088,3.1089,3.1086,3.1085,3.1094,3.1095,3.1099,3.1123,3.1123,3.1098,3.1099,3.1099,3.1099,0,0,0,0,0,0,0,3.1076,3.1079,3.1105,3.1093,3.1092,3.1087,3.1087,3.1102,3.1097,3.1089,3.1087,3.1089,3.1094,3.1098,3.1099,3.1123,3.1098,3.1099,3.11,3.11,3.1172,3.1173,0,0,0,0,0,0,3.1077,3.1078,3.1104,3.1105,3.1082,3.1088,3.1089,3.1096,3.1097,3.1096,3.109,3.1088,3.1096,3.1098,3.1099,3.1134,3.1099,3.11,3.1101,3.1171,3.1172,3.1174,0,0,0,0,0,0,3.1076,3.1079,3.1104,3.1091,3.1094,3.109,3.1098,3.1097,3.1101,3.1098,3.1097,3.1095,3.1096,3.1098,3.1117,3.1134,3.1101,3.1102,3.117,3.1171,3.1173,3.1202,0,0,0,0,0,0,3.1075,3.1079,3.109,3.1092,3.1095,3.1122,3.1099,3.1098,3.1104,3.1101,3.1102,3.1102,3.1095,3.1116,3.1119,3.1135,3.1103,3.1168,3.117,3.1172,3.12,3.1205,3.1209,0,0,0,0,0,3.1074,3.1097,3.109,3.1094,3.1108,3.1123,3.1125,3.1118,3.1105,3.1116,3.1114,3.1102,3.1132,3.1118,3.1121,3.1138,3.1167,3.117,3.1172,3.1198,3.1204,3.1209,0,0,0,0,0,0,3.1095,3.1097,3.109,3.1114,3.1119,3.1119,3.1133,3.1124,3.1132,3.1129,3.1119,3.1119,3.1141,3.1141,3.1126,3.1166,3.1147,3.115,3.1165,3.1171,3.1176,3.1175,3.1104,0,0,0,0,0,3.1103,3.1116,3.1116,3.1137,3.114,3.1136,3.1143,3.1137,3.1141,3.1143,3.1142,3.1147,3.1157,3.1164,3.1173,3.12,3.12,3.1213,3.1218,3.1221,3.1224,3.124,3.1246,3.1182,3.1182,3.1182,0,0,3.1119,3.1121,3.1129,3.1142,3.1145,3.1159,3.1138,3.1152,3.1163,3.1145,3.1164,3.1164,3.1168,3.1192,3.1202,3.1193,3.1242,3.1225,3.1228,3.1229,3.1243,3.1249,3.1255,3.1184,3.1184,3.1184,0,0,3.1154,3.1157,3.1176,3.118,3.1186,3.1184,3.1189,3.1191,3.1191,3.1211,3.1198,3.121,3.1227,3.1232,3.1236,3.1276,3.1265,3.128,3.1303,3.1319,3.1324,3.1328,3.1343,3.1349,3.1283,3.1283,3.1283,0,3.1173,3.1193,3.1186,3.1203,3.1209,3.1196,3.1215,3.1219,3.1227,3.1232,3.1221,3.1245,3.1247,3.1272,3.1282,3.1286,3.1291,3.1279,3.1324,3.1328,3.1332,3.1347,3.1352,3.1284,3.1284,3.1284,3.1284,0,3.1216,3.1231,3.1245,3.1256,3.1263,3.1281,3.1277,3.1286,3.1281,3.1279,3.13,3.1302,3.1313,3.1318,3.1312,3.1343,3.1337,3.1326,3.1306,3.134,3.1353,3.1359,3.1287,3.1286,3.1286,3.1285,0,0,3.1263,3.1272,3.1278,3.1283,3.129,3.1301,3.1318,3.133,3.1338,3.1345,3.136,3.1377,3.1366,3.1371,3.1366,3.1379,3.1413,3.1366,3.1366,3.1375,3.1449,3.1458,3.1464,3.1406,3.1407,3.1408,3.1449,0,3.13,3.1331,3.1327,3.1357,3.1371,3.136,3.1375,3.1381,3.1381,3.1393,3.1392,3.1405,3.139,3.1393,3.1406,3.1406,3.1427,3.1403,3.142,3.142,3.1419,3.1471,3.148,3.1519,3.1454,3.1455,3.1455,0,3.1345,3.1356,3.1388,3.1395,3.14,3.1414,3.1426,3.1437,3.1444,3.1443,3.145,3.1443,3.1461,3.1442,3.1467,3.1451,3.1457,3.1459,3.146,3.1461,3.144,3.1474,3.153,3.1537,3.1463,3.1463,3.1462,0,3.1378,3.14,3.1423,3.1427,3.1435,3.1446,3.145,3.1456,3.1464,3.1473,3.1479,3.149,3.1496,3.1505,3.1501,3.1488,3.1528,3.1508,3.1527,3.1528,3.1536,3.1535,3.1595,3.154,3.154,3.154,3.154,0,3.1419,3.1439,3.1438,3.1452,3.1474,3.147,3.1492,3.1494,3.15,3.1514,3.1505,3.1518,3.1512,3.1525,3.1522,3.1544,3.1547,3.1546,3.1545,3.1548,3.1548,3.1552,3.1549,3.1541,3.1541,3.1541,3.154,0,3.1459,3.1459,3.1483,3.1489,3.1492,3.1508,3.1514,3.1527,3.1527,3.1545,3.1549,3.1549,3.1564,3.1561,3.1577,3.1575,3.1603,3.1599,3.1601,3.16,3.162,3.1619,3.1684,3.1693,3.1633,3.1633,3.1634,0,3.1485,3.1501,3.151,3.1519,3.1524,3.1539,3.1548,3.1545,3.1554,3.1565,3.1577,3.1591,3.1603,3.1627,3.1629,3.1641,3.1637,3.1659,3.1639,3.1641,3.1638,3.1638,3.164,3.1663,3.1664,3.1664,3.1665,0,3.1532,3.1532,3.1545,3.156,3.1571,3.1581,3.1591,3.1599,3.1596,3.1608,3.1624,3.1633,3.1651,3.1666,3.1678,3.1681,3.1673,3.1672,3.1677,3.1679,3.1681,3.1681,3.1613,3.167,3.1669,3.1669,3.1669,3.1669,3.1566,3.158,3.159,3.1606,3.1613,3.1623,3.1636,3.1639,3.1653,3.1668,3.1665,3.1683,3.1691,3.1707,3.1712,3.1727,3.1718,3.1726,3.1728,3.173,3.1733,3.1679,3.1729,3.1729,3.1729,3.1728,3.1728,0,3.1613,3.1619,3.1634,3.1649,3.1662,3.1654,3.1665,3.1676,3.1693,3.1702,3.1714,3.1734,3.1748,3.1752,3.1766,3.1777,3.1774,3.1781,3.178,3.1781,3.1739,3.1733,3.1783,3.1783,3.1783,3.1783,3.1783,3.1783,3.1639,3.1663,3.1665,3.1693,3.1698,3.1718,3.1725,3.1734,3.1741,3.1764,3.1777,3.1779,3.1786,3.1801,3.1814,3.1815,3.1821,3.183,3.1829,3.1789,3.1784,3.1779,3.1773,3.1831,3.1831,3.187,3.187,3.1871]}]]